Terug naar catalogus

CZ-3B DEB

ActiefGTO
NORAD 42465·DEBRIS·🇨🇳 China

Gelanceerd Sep 4, 2010 vanaf Xichang Satellite Launch Center

Loading…

TLE

VersSource: Space-Track

Epoch: Sep 14, 2026, 13:23 UTC

1 42465U 10042AG  26257.55790805  .00000121  00000-0  12924-1 0  9992
2 42465  24.6196  63.9567 7440128  53.2146 354.2353  1.87571570   897

Volg CZ-3B DEB in realtime met AllMySat

Download on the App Store